Location: Unspecified
(0.0000°N, 0.0000°E)
Time: 14:19:20
(UTC+00:00)

Vanguard 1 Rocket - Pass Details

Date: 21 March 2018
Orbit: 654 x 4223 km, 34.3° (Epoch: 21 April)

Event Time Altitude Azimuth Distance (km) Brightness Sun altitude
Rises 08:38:23 0° 218° (SW) 6,391 11.4 37.8°
Reaches altitude 10° 08:46:19 10° 195° (SSW) 4,429 10.9 39.8°
Maximum altitude 08:51:16 14° 169° (S) 3,515 10.7 41.0°
Drops below altitude 10° 08:55:07 10° 141° (SE) 3,301 10.8 42.0°
Sets 08:59:16 0° 114° (ESE) 3,756 11.3 43.0°
